When you browse on this site, cookies collect data to enhance your experience and personalize the content and advertising you see.
Visit our Privacy Policy to learn more. By continuing to use the site, you agree to this use of cookies and data.
  • In Czech Republic
  • List of Countries
  • For 7 days
  • Water Temperature
  • Satellite Maps
  • Weather Map
  • Weather Widgets
  • user-avatar
    Login

    Hourly Weather Pomorie

    Today, 18 November, Sunday

    Time Temperature Precipitation Wind Pressure Humidity
    00:00 +1°C° 0.3 mm 8 mps 771 mmHg 80%
    01:00 +1°C° 0.3 mm 8 mps 771 mmHg 81%
    02:00 +1°C° 0.3 mm 8 mps 771 mmHg 82%
    03:00 +1°C° 0.1 mm 8 mps 770 mmHg 82%
    04:00 +2°C° 0.1 mm 7 mps 770 mmHg 83%
    05:00 0°C° 0.1 mm 7 mps 770 mmHg 83%
    06:00 0°C° 0.1 mm 7 mps 770 mmHg 83%
    07:00 0°C° 0.1 mm 7 mps 769 mmHg 83%
    08:00 0°C° 0.1 mm 7 mps 769 mmHg 83%
    09:00 +2°C° 0.1 mm 7 mps 769 mmHg 81%
    10:00 +4°C° 0.1 mm 7 mps 769 mmHg 79%
    11:00 +5°C° 0.1 mm 7 mps 768 mmHg 77%
    12:00 +5°C° 0.1 mm 7 mps 768 mmHg 77%
    13:00 +6°C° 0.1 mm 7 mps 767 mmHg 77%
    14:00 +8°C° 0.1 mm 7 mps 766 mmHg 77%
    15:00 +7°C° 0.4 mm 8 mps 765 mmHg 81%
    16:00 +7°C° 0.4 mm 8 mps 765 mmHg 84%
    17:00 +7°C° 0.4 mm 9 mps 764 mmHg 87%
    18:00 +7°C° 1.2 mm 9 mps 763 mmHg 89%
    19:00 +7°C° 1.2 mm 9 mps 763 mmHg 90%
    20:00 +7°C° 1.2 mm 9 mps 762 mmHg 91%
    21:00 +7°C° 1.6 mm 9 mps 761 mmHg 91%
    22:00 +8°C° 1.6 mm 10 mps 761 mmHg 91%
    23:00 +8°C° 1.6 mm 10 mps 760 mmHg 92%

    Tomorrow, 19 November, Monday

    Time Temperature Precipitation Wind Pressure Humidity
    00:00 +8°C° 2.1 mm 9 mps 759 mmHg 92%
    01:00 +8°C° 2.1 mm 9 mps 758 mmHg 93%
    02:00 +10°C° 2.1 mm 8 mps 758 mmHg 93%
    03:00 +10°C° 3.9 mm 7 mps 757 mmHg 93%
    04:00 +10°C° 3.9 mm 6 mps 756 mmHg 94%
    05:00 +10°C° 3.9 mm 6 mps 756 mmHg 94%
    06:00 +10°C° 0.8 mm 6 mps 756 mmHg 93%
    07:00 +10°C° 0.8 mm 6 mps 756 mmHg 92%
    08:00 +9°C° 0.8 mm 6 mps 756 mmHg 90%
    09:00 +9°C° 0 mm 6 mps 757 mmHg 87%
    10:00 +9°C° 0 mm 6 mps 757 mmHg 84%
    11:00 +9°C° 0 mm 6 mps 758 mmHg 80%
    12:00 +9°C° 0 mm 6 mps 759 mmHg 78%
    13:00 +9°C° 0 mm 6 mps 759 mmHg 75%
    14:00 +10°C° 0 mm 5 mps 760 mmHg 72%
    15:00 +9°C° 0 mm 5 mps 760 mmHg 74%
    16:00 +8°C° 0 mm 5 mps 761 mmHg 77%
    17:00 +7°C° 0 mm 5 mps 762 mmHg 79%
    18:00 +6°C° 0 mm 5 mps 763 mmHg 81%
    19:00 +5°C° 0 mm 5 mps 763 mmHg 83%
    20:00 +5°C° 0 mm 5 mps 764 mmHg 84%
    21:00 +3°C° 0 mm 5 mps 765 mmHg 85%
    22:00 +4°C° 0 mm 4 mps 765 mmHg 85%
    23:00 +4°C° 0 mm 4 mps 766 mmHg 85%

    Day after tomorrow, 20 November, Tuesday

    Time Temperature Precipitation Wind Pressure Humidity
    00:00 +4°C° 0 mm 4 mps 766 mmHg 86%
    01:00 +3°C° 0 mm 3 mps 766 mmHg 87%
    02:00 +3°C° 0 mm 3 mps 766 mmHg 88%
    03:00 +3°C° 0 mm 3 mps 766 mmHg 89%
    04:00 +3°C° 0 mm 3 mps 766 mmHg 89%
    05:00 +3°C° 0 mm 3 mps 766 mmHg 90%
    06:00 +3°C° 0 mm 3 mps 767 mmHg 90%
    07:00 +3°C° 0 mm 3 mps 767 mmHg 89%
    08:00 +4°C° 0 mm 3 mps 767 mmHg 88%
    09:00 +5°C° 0 mm 3 mps 767 mmHg 86%
    10:00 +5°C° 0 mm 3 mps 767 mmHg 85%
    11:00 +6°C° 0 mm 4 mps 767 mmHg 83%
    12:00 +7°C° 0 mm 4 mps 766 mmHg 84%
    13:00 +7°C° 0 mm 4 mps 766 mmHg 84%
    14:00 +8°C° 0 mm 4 mps 765 mmHg 85%
    15:00 +8°C° 0.1 mm 4 mps 765 mmHg 88%
    16:00 +8°C° 0.1 mm 4 mps 765 mmHg 91%
    17:00 +8°C° 0.1 mm 5 mps 764 mmHg 94%
    18:00 +9°C° 0.2 mm 5 mps 764 mmHg 95%
    19:00 +9°C° 0.2 mm 5 mps 764 mmHg 96%
    20:00 +9°C° 0.2 mm 5 mps 764 mmHg 96%
    21:00 +9°C° 0.5 mm 5 mps 763 mmHg 97%
    22:00 +11°C° 0.5 mm 4 mps 763 mmHg 97%
    23:00 +11°C° 0.5 mm 4 mps 763 mmHg 97%

    21 November, Wednesday

    Time Temperature Precipitation Wind Pressure Humidity
    00:00 +11°C° 0.3 mm 4 mps 762 mmHg 97%
    01:00 +12°C° 0.3 mm 4 mps 762 mmHg 97%
    02:00 +12°C° 0.3 mm 3 mps 761 mmHg 97%
    03:00 +12°C° 0.3 mm 3 mps 761 mmHg 97%
    04:00 +12°C° 0.3 mm 3 mps 761 mmHg 97%
    05:00 +12°C° 0.3 mm 3 mps 760 mmHg 97%
    06:00 +13°C° 0.3 mm 3 mps 760 mmHg 97%
    07:00 +13°C° 0.3 mm 3 mps 760 mmHg 97%
    08:00 +13°C° 0.3 mm 3 mps 759 mmHg 97%
    09:00 +13°C° 0.9 mm 3 mps 759 mmHg 96%
    10:00 +14°C° 0.9 mm 3 mps 759 mmHg 95%
    11:00 +14°C° 0.9 mm 3 mps 759 mmHg 94%
    12:00 +14°C° 1.2 mm 3 mps 758 mmHg 94%
    13:00 +14°C° 1.2 mm 3 mps 758 mmHg 94%
    14:00 +14°C° 1.2 mm 4 mps 757 mmHg 94%
    15:00 +14°C° 0.5 mm 4 mps 757 mmHg 94%
    16:00 +14°C° 0.5 mm 4 mps 757 mmHg 94%
    17:00 +14°C° 0.5 mm 4 mps 757 mmHg 94%
    18:00 +13°C° 0.3 mm 4 mps 757 mmHg 94%
    19:00 +13°C° 0.3 mm 4 mps 757 mmHg 94%
    20:00 +13°C° 0.3 mm 3 mps 757 mmHg 95%
    21:00 +13°C° 0.2 mm 4 mps 758 mmHg 93%
    22:00 +12°C° 0.2 mm 4 mps 758 mmHg 91%
    23:00 +12°C° 0.2 mm 4 mps 758 mmHg 89%

    22 November, Thursday

    Time Temperature Precipitation Wind Pressure Humidity
    00:00 +10°C° 0.1 mm 5 mps 758 mmHg 88%
    01:00 +10°C° 0.1 mm 5 mps 758 mmHg 87%
    02:00 +10°C° 0.1 mm 6 mps 759 mmHg 86%
    03:00 +9°C° 0.1 mm 6 mps 759 mmHg 86%
    04:00 +8°C° 0.1 mm 7 mps 759 mmHg 85%
    05:00 +7°C° 0.1 mm 8 mps 760 mmHg 85%
    06:00 +6°C° 0.2 mm 8 mps 760 mmHg 85%
    07:00 +6°C° 0.2 mm 8 mps 761 mmHg 85%
    08:00 +5°C° 0.2 mm 9 mps 761 mmHg 84%
    09:00 +5°C° 0.1 mm 9 mps 762 mmHg 84%
    10:00 +5°C° 0.1 mm 9 mps 762 mmHg 84%
    11:00 +5°C° 0.1 mm 9 mps 763 mmHg 84%
    12:00 +3°C° 0.2 mm 9 mps 763 mmHg 84%
    13:00 +3°C° 0.2 mm 9 mps 763 mmHg 84%
    14:00 +4°C° 0.2 mm 8 mps 763 mmHg 84%
    15:00 +4°C° 0.3 mm 8 mps 764 mmHg 85%
    16:00 +4°C° 0.3 mm 8 mps 765 mmHg 85%
    17:00 +4°C° 0.3 mm 8 mps 765 mmHg 85%
    18:00 +4°C° 0.2 mm 8 mps 766 mmHg 86%
    19:00 +4°C° 0.2 mm 8 mps 766 mmHg 86%
    20:00 +4°C° 0.2 mm 7 mps 766 mmHg 86%
    21:00 +4°C° 0.2 mm 7 mps 767 mmHg 86%
    22:00 +3°C° 0.2 mm 7 mps 767 mmHg 86%
    23:00 +3°C° 0.2 mm 7 mps 767 mmHg 86%

    23 November, Friday

    Time Temperature Precipitation Wind Pressure Humidity
    00:00 +3°C° 0.2 mm 7 mps 768 mmHg 86%
    01:00 +3°C° 0.2 mm 7 mps 768 mmHg 86%
    02:00 +3°C° 0.2 mm 7 mps 768 mmHg 87%
    03:00 +3°C° 0.2 mm 7 mps 768 mmHg 87%
    04:00 +3°C° 0.2 mm 6 mps 768 mmHg 87%
    05:00 +3°C° 0.2 mm 6 mps 769 mmHg 87%
    06:00 +3°C° 0.1 mm 6 mps 769 mmHg 87%
    07:00 +3°C° 0.1 mm 6 mps 769 mmHg 87%
    08:00 +3°C° 0.1 mm 6 mps 770 mmHg 87%
    09:00 +3°C° 0.1 mm 6 mps 770 mmHg 84%
    10:00 +4°C° 0.1 mm 6 mps 770 mmHg 82%
    11:00 +4°C° 0.1 mm 6 mps 770 mmHg 80%
    12:00 +5°C° 0 mm 6 mps 770 mmHg 78%
    13:00 +5°C° 0 mm 6 mps 770 mmHg 76%
    14:00 +7°C° 0 mm 6 mps 770 mmHg 74%
    15:00 +5°C° 0 mm 6 mps 770 mmHg 76%
    16:00 +6°C° 0 mm 5 mps 770 mmHg 78%
    17:00 +5°C° 0 mm 5 mps 770 mmHg 79%
    18:00 +5°C° 0 mm 5 mps 770 mmHg 80%
    19:00 +3°C° 0 mm 5 mps 770 mmHg 80%
    20:00 +4°C° 0 mm 4 mps 770 mmHg 81%
    21:00 +4°C° 0 mm 4 mps 770 mmHg 81%
    22:00 +3°C° 0 mm 4 mps 770 mmHg 80%
    23:00 +3°C° 0 mm 4 mps 770 mmHg 80%
    Show more